Location: Altavilla Irpina
(41.0000°N, 14.7833°E)
Time: 06:48:47
(UTC+00:00)

ATLAS 3B R/B - Pass Details

Date: 19 May 2025
Orbit: 935 x 1258 km, 63.8° (Epoch: 14 June)

Event Time Altitude Azimuth Distance (km) Brightness Sun altitude
Exits shadow 23:17:17 20° 259° (W) 2,440 4.4 -28.8°
Maximum altitude 23:21:59 40° 317° (NW) 1,731 4.0 -28.7°
Drops below altitude 10° 23:29:15 10° 25° (NNE) 3,231 6.1 -28.6°
Sets 23:32:20 0° 33° (NNE) 4,214 6.8 -28.5°
